Wind_Speed
14 18 18 9 7 8 7 6 7 6 6 6 7 9 11 12 11 12 14 13 12 12 10 10 9 8 7 2 4 4 4 2 1 4 5 4 5 5 7 6 6 5 5
3 7 10 4 6 5 5 5 4 4 5 6 6 8 11 12 12 11 5 9 4 7 11 12 11 10 9 8 5 7 2 3 3 3 2 4 5 5 6 6 6 6 6
14 12 12 9 3 3 2 3 4 3 2 5 11 7 5 4 12 15 8 11 8 4 9 12 14 10 7 6 4 3 5 5 4 0 4 5 5 4 5 6 6 6 7
7 6 6 6 4 3 3 2 2 2 3 4 2 2 5 8 7 9 7 7 10 8 5 11 12 9 7 5 4 3 4 5 4 3 5 8 3 7 5 11 8 7 7
6 6 7 7 7 7 7 7 6 5 4 4 3 3 4 10 10 15 11 12 9 8 8 10 10 8 6 5 6 7 6 6 5 6 6 11 10 14 14 12 11 5 6
2 6 7 6 8 10 10 8 6 5 4 3 2 2 3 5 5 5 8 9 8 6 2 4 4 4 4 4 6 8 7 6 7 8 8 7 9 10 10 14 6 4 2
3 5 6 6 7 8 9 8 8 6 5 5 4 1 1 2 2 3 1 1 1 3 2 2 4 4 5 5 4 5 6 7 9 9 11 11 9 9 9 7 6 9 4
2 4 5 6 7 7 8 8 6 5 4 4 3 3 1 1 1 1 1 2 1 3 5 5 5 5 6 7 7 7 8 9 10 11 11 13 13 9 6 6 6 8 6
1 2 2 2 2 3 3 6 7 5 3 2 1 1 0 3 3 3 2 4 3 3 4 4 5 6 6 7 8 8 10 11 12 13 13 13 14 14 13 13 12 11 11
1 1 1 1 2 3 3 3 3 1 1 3 4 5 5 5 5 4 4 4 5 6 5 4 4 6 8 9 10 10 11 12 13 15 17 17 16 17 17 16 15 14 13
2 2 1 2 3 4 5 4 3 5 6 7 6 6 7 7 4 10 11 9 7 8 7 6 6 6 7 8 10 11 11 11 13 15 16 18 20 20 20 19 18 18 17
5 2 1 3 8 9 9 8 9 10 9 8 9 9 8 9 10 7 12 13 12 9 7 7 9 10 11 10 11 13 14 14 14 15 17 19 21 20 20 21 23 22 21
4 5 6 8 13 15 11 12 13 15 14 15 14 14 14 13 13 13 13 14 13 14 13 12 12 13 14 16 17 17 17 18 19 20 20 21 22 21 22 24 24 25 26
8 10 12 13 18 18 15 15 15 16 17 18 19 20 19 17 16 17 17 18 19 19 20 18 18 18 18 18 18 19 20 20 19 20 21 22 23 24 25 26 25 25 24
13 12 14 15 16 18 19 19 19 19 18 19 20 22 23 23 21 20 21 22 23 24 24 26 26 25 24 24 24 25 25 25 25 24 24 24 24 26 28 30 30 27 28
16 17 16 18 18 21 23 20 22 23 22 22 22 23 23 24 24 24 24 24 26 28 29 30 30 30 31 30 29 31 31 31 31 31 29 29 28 29 33 34 33 34 34
20 21 22 23 23 24 26 28 29 29 28 26 25 25 26 26 26 27 29 30 28 28 30 31 33 33 34 37 37 37 36 35 35 35 35 36 35 34 32 36 38 38 38
24 25 27 27 28 29 29 30 31 32 31 31 29 27 28 27 28 29 30 31 31 31 32 33 34 35 37 39 40 41 41 40 39 40 40 40 39 39 38 37 38 41 42
28 27 29 30 32 32 32 33 33 32 33 33 31 31 30 29 30 31 33 33 32 33 34 34 35 36 38 40 42 43 44 44 43 42 43 44 44 41 43 44 40 40 41
33 31 31 32 32 33 35 37 37 37 36 35 34 34 33 34 34 34 34 35 35 36 37 38 38 39 39 41 43 45 47 48 47 46 46 45 46 46 47 48 47 45 40
34 34 33 32 33 35 36 38 39 38 38 39 39 39 39 38 37 38 40 39 39 39 39 39 40 41 43 44 46 47 49 49 49 48 49 49 48 50 51 52 51 50 46
35 35 35 36 36 37 40 42 42 41 40 40 40 40 39 40 40 42 43 43 43 43 42 41 41 42 44 45 46 48 48 50 50 50 50 52 55 54 55 55 56 54 52
35 38 38 39 40 42 43 43 42 42 42 41 41 41 41 42 43 43 43 43 43 42 41 41 42 44 46 46 47 46 45 48 51 53 55 57 57 56 56 55 56 57 54
38 38 39 40 41 43 43 42 42 42 42 42 42 42 43 43 43 44 44 42 42 43 43 44 45 45 43 44 45 48 49 51 52 52 51 50 50 49 50 52 50 53 54
40 40 40 40 41 42 42 41 40 39 40 41 42 42 42 42 43 43 42 42 43 44 44 44 40 39 41 45 46 46 47 48 49 49 49 49 50 51 51 50 51 49 50
38 38 40 41 41 41 42 41 41 41 41 41 42 42 42 42 41 42 43 42 42 41 38 37 38 40 41 41 43 44 47 50 52 50 48 47 51 50 48 46 45 46 45
Wind_Direction
278 241 241 210 214 192 227 236 242 247 259 258 256 254 259 262 267 273 282 288 280 241 239 236 223 211 219 282 303 279 108 72 335 200 143 168 136 136 137 144 139 149 163
290 188 220 177 172 171 217 233 241 246 266 265 261 258 261 264 253 261 309 264 249 219 234 224 214 220 216 245 281 309 235 264 217 297 44 213 160 149 145 152 153 152 163
71 90 105 121 150 147 169 217 233 236 257 308 259 250 268 260 255 257 288 276 270 212 201 212 204 205 211 250 281 306 210 216 188 41 12 4 349 214 158 165 160 171 176
76 83 101 105 133 159 163 123 134 167 207 344 130 169 299 301 341 53 74 53 25 152 202 181 174 196 214 242 259 216 205 238 297 329 336 337 281 293 308 163 191 170 178
94 101 111 111 116 120 119 128 135 138 161 156 180 253 306 340 14 26 67 60 63 81 97 159 182 203 210 231 244 243 267 261 278 304 318 291 341 295 231 254 186 190 176
155 151 139 137 142 141 146 142 135 113 111 126 186 271 326 345 337 7 17 49 58 79 115 168 193 238 238 250 246 250 256 258 272 292 304 281 310 303 288 270 215 166 180
123 140 149 165 155 148 142 138 119 109 100 98 102 199 284 331 327 310 273 144 88 102 153 226 232 220 224 240 231 241 258 275 285 293 297 304 316 319 326 331 325 211 296
99 137 152 145 131 124 127 127 123 120 120 120 124 134 105 290 328 323 327 303 263 213 230 229 242 241 236 242 257 264 267 274 283 289 292 297 299 298 280 283 284 313 296
148 174 173 116 142 112 101 119 122 138 170 193 241 272 301 327 342 316 320 297 271 225 219 229 256 254 255 262 270 274 280 282 282 283 283 280 285 287 283 276 274 275 276
179 88 43 58 32 4 18 31 26 11 237 247 256 268 278 324 307 289 273 271 283 291 288 280 265 269 269 266 264 266 268 272 276 288 286 285 286 278 277 279 274 269 271
186 147 110 0 25 18 3 3 329 311 304 304 296 282 295 303 330 263 270 270 269 273 267 262 264 275 280 280 282 285 286 287 286 288 289 284 293 285 274 272 275 273 269
202 251 144 47 20 6 348 346 334 323 318 303 293 296 290 294 294 301 255 287 268 266 274 266 267 283 290 288 284 283 283 286 290 293 298 297 298 298 278 277 277 275 272
265 264 250 277 305 324 338 328 319 315 314 308 304 296 290 287 288 288 285 287 268 262 268 271 275 276 277 282 282 282 282 281 284 289 290 292 292 290 282 281 278 277 275
269 281 284 288 297 303 309 311 310 304 300 299 299 297 293 287 283 281 279 273 273 272 271 271 274 278 281 282 280 278 280 283 286 290 292 289 284 279 280 284 284 286 283
267 280 284 280 283 290 291 292 296 300 298 291 289 287 285 285 285 282 279 278 275 270 268 267 268 272 278 281 286 286 284 284 286 287 289 291 290 287 282 280 281 278 280
266 265 272 271 276 282 287 283 287 290 289 285 285 285 284 283 283 282 278 274 271 270 269 269 270 272 272 277 280 281 283 284 285 287 286 285 287 287 285 283 279 274 273
260 266 268 269 269 281 284 282 282 282 284 284 282 282 283 282 283 284 282 282 278 273 269 267 267 270 272 274 277 279 280 281 281 279 281 285 286 286 286 284 282 278 272
261 263 264 270 273 274 278 283 281 283 285 284 283 281 279 278 281 283 281 279 278 278 275 273 271 270 269 271 274 276 276 278 281 281 280 280 281 283 284 280 278 277 275
264 262 267 272 276 277 279 283 283 284 284 283 281 281 281 282 283 282 281 280 280 278 277 277 277 276 275 275 275 276 278 279 280 278 277 278 281 281 280 281 280 277 272
264 264 266 272 274 277 277 281 287 289 287 285 285 284 283 286 286 286 286 285 285 284 284 282 279 276 275 274 274 275 277 280 279 277 276 277 277 277 280 281 283 284 278
263 266 267 268 275 278 279 281 285 288 288 288 288 288 288 290 291 292 291 289 287 284 282 279 278 277 276 275 275 277 278 278 278 278 278 278 276 277 279 279 281 281 276
261 265 269 273 272 276 278 281 286 288 288 288 287 287 288 289 290 290 289 289 288 286 283 280 279 278 278 279 280 280 280 281 280 280 279 279 280 279 276 275 277 274 271
262 266 268 269 270 273 277 280 282 284 285 286 286 286 286 286 286 284 283 282 282 281 280 280 281 281 282 282 280 279 279 278 280 280 279 280 278 276 275 273 270 269 267
266 268 270 272 274 275 277 278 280 280 281 283 284 284 283 283 282 282 282 283 282 281 281 281 281 281 279 279 281 284 285 287 287 286 284 283 282 278 277 275 271 266 262
268 270 271 272 273 275 276 277 279 281 283 283 283 283 283 283 284 285 285 284 283 283 283 282 280 278 282 283 285 287 289 289 287 286 285 282 279 279 277 273 271 266 261
267 269 270 271 271 272 274 276 277 277 278 280 281 282 283 284 284 285 287 286 285 283 280 279 279 281 282 286 290 292 292 290 287 284 281 279 279 278 275 273 268 265 261
Height
5882 5882 5886 5890 5890 5893 5895 5898 5900 5902 5903 5904 5904 5905 5905 5905 5904 5903 5903 5903 5903 5903 5905 5907 5908 5909 5911 5910 5911 5912 5913 5913 5913 5914 5913 5913 5913 5913 5912 5913 5913 5915 5916
5882 5883 5887 5890 5892 5893 5897 5899 5900 5901 5902 5903 5903 5904 5903 5902 5901 5901 5897 5901 5900 5901 5902 5905 5907 5909 5910 5911 5911 5912 5913 5913 5913 5913 5912 5911 5912 5912 5913 5913 5913 5914 5915
5886 5887 5888 5891 5893 5894 5897 5898 5899 5901 5902 5902 5902 5902 5902 5901 5897 5895 5893 5897 5899 5898 5899 5903 5906 5908 5910 5911 5911 5911 5912 5913 5913 5913 5914 5912 5913 5912 5912 5912 5912 5914 5914
5892 5892 5892 5893 5894 5895 5897 5899 5900 5901 5902 5902 5902 5903 5903 5901 5897 5895 5897 5898 5895 5896 5900 5902 5905 5907 5909 5911 5911 5911 5912 5912 5913 5913 5913 5912 5913 5911 5913 5913 5912 5913 5915
5893 5894 5895 5895 5896 5896 5897 5899 5901 5902 5902 5902 5902 5903 5903 5901 5898 5897 5897 5899 5899 5900 5901 5904 5906 5907 5909 5910 5911 5911 5912 5912 5913 5913 5913 5894 5911 5905 5909 5906 5909 5911 5913
5896 5896 5895 5897 5897 5898 5899 5901 5901 5902 5902 5902 5903 5904 5903 5902 5901 5900 5899 5898 5901 5901 5904 5906 5907 5907 5909 5910 5910 5911 5911 5911 5912 5912 5912 5915 5913 5909 5907 5905 5907 5911 5913
5897 5897 5897 5898 5900 5901 5901 5902 5902 5902 5902 5903 5903 5903 5902 5903 5902 5901 5901 5901 5901 5901 5904 5905 5906 5907 5908 5909 5909 5910 5911 5911 5911 5911 5911 5910 5911 5910 5908 5897 5908 5898 5907
5899 5899 5900 5901 5901 5903 5903 5903 5903 5902 5902 5903 5902 5903 5902 5901 5902 5902 5901 5902 5903 5903 5904 5905 5906 5907 5907 5908 5909 5909 5910 5910 5910 5910 5910 5909 5909 5910 5911 5907 5911 5902 5908
5902 5902 5903 5903 5904 5904 5905 5905 5905 5905 5905 5904 5904 5904 5903 5903 5902 5902 5903 5903 5903 5904 5904 5903 5905 5905 5906 5907 5908 5908 5908 5908 5908 5907 5907 5907 5907 5907 5907 5907 5907 5907 5905
5902 5903 5904 5904 5905 5905 5905 5905 5905 5906 5906 5905 5904 5904 5903 5903 5902 5902 5902 5902 5903 5903 5903 5903 5903 5904 5905 5905 5905 5905 5906 5906 5906 5905 5905 5905 5904 5904 5904 5904 5904 5905 5905
5901 5903 5903 5904 5904 5905 5906 5906 5906 5906 5906 5905 5904 5903 5903 5903 5903 5903 5903 5902 5902 5902 5902 5901 5903 5904 5904 5905 5905 5904 5904 5904 5903 5903 5902 5901 5900 5900 5900 5901 5901 5901 5902
5900 5902 5902 5903 5904 5904 5905 5905 5905 5905 5904 5904 5904 5903 5903 5902 5902 5902 5902 5901 5900 5901 5901 5900 5901 5901 5901 5902 5902 5902 5902 5901 5900 5900 5899 5898 5898 5897 5895 5896 5897 5898 5897
5899 5900 5900 5901 5901 5902 5902 5903 5903 5902 5902 5902 5901 5901 5901 5900 5900 5899 5899 5899 5899 5900 5900 5899 5899 5898 5898 5899 5898 5897 5897 5897 5896 5895 5894 5894 5894 5893 5892 5892 5892 5892 5893
5896 5897 5897 5898 5898 5899 5900 5901 5902 5902 5901 5900 5898 5898 5897 5897 5897 5897 5897 5897 5897 5896 5896 5896 5896 5895 5895 5894 5894 5893 5892 5891 5891 5890 5889 5889 5888 5888 5887 5887 5886 5886 5886
5892 5893 5894 5894 5894 5895 5897 5898 5898 5898 5898 5898 5897 5895 5894 5893 5893 5893 5892 5892 5892 5892 5892 5892 5891 5891 5890 5888 5888 5888 5887 5886 5885 5884 5883 5883 5882 5881 5881 5880 5880 5879 5879
5888 5889 5890 5890 5890 5891 5892 5893 5894 5895 5895 5894 5893 5892 5890 5889 5888 5888 5888 5888 5887 5886 5886 5885 5885 5884 5883 5883 5882 5881 5880 5879 5878 5877 5876 5876 5875 5875 5873 5872 5873 5872 5872
5884 5885 5885 5885 5886 5886 5887 5887 5888 5888 5888 5888 5887 5885 5884 5883 5882 5881 5880 5880 5880 5879 5879 5878 5877 5877 5876 5874 5874 5872 5872 5872 5871 5870 5868 5867 5867 5866 5865 5863 5862 5862 5862
5878 5879 5879 5880 5880 5880 5881 5880 5880 5880 5880 5879 5879 5878 5878 5877 5875 5874 5873 5872 5871 5870 5870 5869 5869 5868 5868 5866 5865 5863 5862 5862 5862 5861 5859 5858 5858 5857 5854 5854 5853 5853 5852
5870 5873 5872 5873 5874 5874 5874 5873 5872 5872 5871 5870 5870 5870 5869 5869 5868 5867 5866 5864 5863 5862 5861 5860 5859 5858 5858 5856 5855 5853 5851 5851 5851 5850 5849 5848 5847 5846 5843 5840 5842 5842 5843
5865 5865 5866 5866 5866 5865 5866 5865 5864 5863 5862 5862 5861 5860 5859 5859 5858 5857 5856 5855 5853 5852 5850 5850 5849 5849 5848 5846 5844 5842 5840 5839 5838 5837 5837 5836 5835 5833 5830 5827 5827 5828 5832
5860 5860 5860 5860 5859 5858 5857 5857 5856 5855 5854 5852 5850 5849 5848 5847 5846 5845 5844 5843 5843 5842 5841 5840 5838 5836 5835 5834 5832 5830 5827 5826 5824 5824 5823 5821 5820 5819 5817 5815 5815 5814 5815
5851 5852 5852 5852 5851 5851 5850 5848 5847 5846 5844 5843 5842 5840 5838 5837 5836 5835 5833 5832 5830 5830 5828 5827 5826 5824 5822 5820 5818 5814 5812 5810 5809 5809 5807 5805 5803 5803 5801 5799 5799 5799 5798
5843 5843 5843 5842 5842 5843 5841 5839 5838 5837 5835 5834 5832 5831 5829 5828 5827 5825 5824 5822 5820 5819 5818 5816 5813 5811 5808 5805 5802 5801 5800 5797 5794 5793 5791 5788 5786 5784 5783 5782 5782 5780 5782
5834 5834 5833 5832 5832 5832 5831 5829 5828 5827 5825 5824 5822 5821 5819 5818 5816 5814 5812 5811 5808 5806 5803 5801 5799 5797 5794 5791 5788 5786 5783 5780 5776 5772 5771 5770 5767 5765 5764 5763 5763 5763 5763
5824 5824 5823 5823 5822 5821 5820 5819 5818 5816 5814 5813 5812 5811 5808 5806 5804 5801 5799 5797 5794 5793 5790 5787 5785 5784 5782 5777 5774 5770 5767 5763 5760 5758 5756 5753 5750 5749 5747 5746 5745 5745 5746
5814 5814 5814 5813 5812 5811 5810 5809 5808 5806 5805 5803 5802 5800 5798 5795 5793 5790 5787 5784 5782 5780 5778 5776 5775 5772 5768 5764 5759 5757 5752 5748 5744 5742 5738 5736 5734 5733 5732 5731 5730 5730 5732